User: anonymous   Login
Location: Wien
(48.2082°N, 16.3738°E)
Time: 05:00:34
(UTC+02:00)
Language:

BUGSAT 1 - Orbit

View from above orbital plane
View from above orbital plane
View from above satellite
View from above satellite

Ground track
Ground track

The orbit data is extracted from the following two-line orbital elements,

1 40014U 14033E   19288.75560143  .00000571  00000-0  56967-4 0  9999
2 40014  98.0269 239.0349 0032320  28.4295 331.8692 14.95327074290291
Epoch (UTC): 15 October 2019 18:08:03
Eccentricity: 0.0032320
inclination: 98.0269°
perigee height: 559 km
apogee height: 604 km
right ascension of ascending node: 239.0349°
argument of perigee: 28.4295°
revolutions per day: 14.95327074
mean anomaly at epoch: 331.8692°
orbit number at epoch: 29029

The dashed part of the orbit path shows where the satellite is in the earth's shadow,  

DLR